| time (UTC) | temp C | wind direction | speed KPH | gust KPH | rain 1hr cm | rain 24hr cm | rain mn cm | humidity % | barometer mb |
| 20260502130541 | 5 | 135 | 3.2 | 4.8 | 0.00 | 0.00 | 0.00 | 53 | 1019.8 |
| 20260502123539 | 5 | 135 | 3.2 | 6.4 | 0.00 | 0.00 | 0.00 | 52 | 1019.6 |
| 20260502122539 | 5 | 0.0 | 0.0 | 0.00 | 0.00 | 0.00 | 52 | 1019.6 | |
| 20260502121519 | 5 | 135 | 3.2 | 4.8 | 0.00 | 0.00 | 0.00 | 52 | 1019.8 |
| 20260502120519 | 5 | 135 | 1.6 | 3.2 | 0.00 | 0.00 | 0.00 | 52 | 1019.8 |
| 20260502115518 | 5 | 0.0 | 0.0 | 0.00 | 0.00 | 0.00 | 52 | 1019.9 | |
| 20260502114519 | 5 | 135 | 1.6 | 4.8 | 0.00 | 0.00 | 0.00 | 53 | 1019.8 |
| 20260502113519 | 5 | 135 | 1.6 | 6.4 | 0.00 | 0.00 | 0.00 | 53 | 1019.8 |
| 20260502112518 | 5 | 135 | 3.2 | 4.8 | 0.00 | 0.00 | 0.00 | 52 | 1019.8 |
| 20260502111518 | 6 | 135 | 3.2 | 6.4 | 0.00 | 0.00 | 0.00 | 51 | 1019.9 |
| 20260502110519 | 6 | 135 | 3.2 | 4.8 | 0.00 | 0.00 | 0.00 | 50 | 1020.6 |
| 20260502105539 | 6 | 0.0 | 0.0 | 0.00 | 0.00 | 0.00 | 50 | 1020.7 | |
| 20260502104518 | 6 | 0.0 | 0.0 | 0.00 | 0.00 | 0.00 | 47 | 1020.5 | |
| 20260502103518 | 7 | 135 | 1.6 | 3.2 | 0.00 | 0.00 | 0.00 | 46 | 1020.1 |
| 20260502102518 | 7 | 135 | 1.6 | 4.8 | 0.00 | 0.00 | 0.00 | 47 | 1020.4 |
| 20260502101519 | 7 | 135 | 4.8 | 6.4 | 0.00 | 0.00 | 0.00 | 44 | 1020.6 |
| 20260502100518 | 7 | 135 | 4.8 | 6.4 | 0.00 | 0.00 | 0.00 | 45 | 1020.3 |
| 20260502091518 | 6 | 135 | 1.6 | 4.8 | 0.00 | 0.00 | 0.00 | 48 | 1020.0 |
| 20260502090518 | 6 | 135 | 3.2 | 6.4 | 0.00 | 0.00 | 0.00 | 48 | 1019.9 |
| 20260502071519 | 7 | 135 | 4.8 | 6.4 | 0.00 | 0.00 | 0.00 | 49 | 1019.9 |
| 20260502070518 | 7 | 135 | 4.8 | 6.4 | 0.00 | 0.00 | 0.00 | 50 | 1020.2 |
| 20260502065518 | 7 | 0.0 | 0.0 | 0.00 | 0.00 | 0.00 | 51 | 1019.9 | |
| 20260502064518 | 7 | 135 | 3.2 | 6.4 | 0.00 | 0.00 | 0.00 | 52 | 1020.2 |
| 20260502063539 | 7 | 135 | 1.6 | 4.8 | 0.00 | 0.00 | 0.00 | 52 | 1020.4 |
| 20260502062518 | 7 | 135 | 1.6 | 4.8 | 0.00 | 0.00 | 0.00 | 52 | 1020.1 |
| 20260502061518 | 7 | 135 | 3.2 | 6.4 | 0.00 | 0.00 | 0.00 | 52 | 1020.1 |
| 20260502060517 | 8 | 0.0 | 0.0 | 0.00 | 0.00 | 0.00 | 53 | 1019.7 | |
| 20260502055519 | 8 | 0.0 | 0.0 | 0.00 | 0.00 | 0.00 | 53 | 1019.8 | |
| 20260502054518 | 8 | 135 | 1.6 | 4.8 | 0.00 | 0.00 | 0.00 | 52 | 1019.6 |
| 20260502053519 | 8 | 135 | 4.8 | 8.0 | 0.00 | 0.00 | 0.00 | 53 | 1019.3 |
| 20260502052519 | 8 | 0.0 | 0.0 | 0.00 | 0.00 | 0.00 | 54 | 1019.0 | |
| 20260502051539 | 8 | 0.0 | 0.0 | 0.00 | 0.00 | 0.00 | 54 | 1019.2 | |
| 20260502050519 | 8 | 0.0 | 0.0 | 0.00 | 0.00 | 0.00 | 54 | 1018.8 | |
| 20260502045519 | 8 | 0.0 | 0.0 | 0.00 | 0.00 | 0.00 | 53 | 1018.8 | |
| 20260502044519 | 8 | 0.0 | 0.0 | 0.00 | 0.00 | 0.00 | 52 | 1018.7 | |
| 20260502043519 | 9 | 0.0 | 0.0 | 0.00 | 0.00 | 0.00 | 51 | 1018.7 | |
| 20260502042518 | 9 | 0.0 | 0.0 | 0.00 | 0.00 | 0.00 | 51 | 1018.6 | |
| 20260502041519 | 10 | 0.0 | 0.0 | 0.00 | 0.00 | 0.00 | 50 | 1018.3 | |
| 20260502040519 | 10 | 0.0 | 0.0 | 0.00 | 0.00 | 0.00 | 49 | 1018.2 | |
| 20260502035519 | 10 | 0.0 | 0.0 | 0.00 | 0.00 | 0.00 | 48 | 1018.0 | |
| 20260502034600 | 10 | 0.0 | 0.0 | 0.00 | 0.00 | 0.00 | 47 | 1017.9 | |
| 20260502033518 | 11 | 0.0 | 0.0 | 0.00 | 0.00 | 0.00 | 45 | 1017.9 | |
| 20260502032540 | 11 | 0.0 | 0.0 | 0.00 | 0.00 | 0.00 | 43 | 1017.7 | |
| 20260502031519 | 12 | 0.0 | 0.0 | 0.00 | 0.00 | 0.00 | 41 | 1017.7 | |
| 20260502030518 | 13 | 0.0 | 0.0 | 0.00 | 0.00 | 0.00 | 39 | 1017.5 | |
| 20260502025518 | 14 | 0.0 | 0.0 | 0.00 | 0.00 | 0.00 | 38 | 1017.8 | |
| 20260502024518 | 15 | 0.0 | 0.0 | 0.00 | 0.00 | 0.00 | 36 | 1017.8 | |
| 20260502023519 | 15 | 0.0 | 0.0 | 0.00 | 0.00 | 0.00 | 35 | 1017.4 | |
| 20260502022518 | 15 | 0.0 | 0.0 | 0.00 | 0.00 | 0.00 | 33 | 1017.3 | |
| 20260502021519 | 16 | 248 | 1.6 | 4.8 | 0.00 | 0.00 | 0.00 | 32 | 1017.2 |
| 20260502020518 | 16 | 248 | 1.6 | 4.8 | 0.00 | 0.00 | 0.00 | 31 | 1017.1 |
| 20260502015518 | 16 | 225 | 1.6 | 4.8 | 0.00 | 0.00 | 0.00 | 31 | 1016.7 |
| 20260502014518 | 17 | 248 | 3.2 | 9.7 | 0.00 | 0.00 | 0.00 | 30 | 1016.6 |
| 20260502013539 | 17 | 248 | 3.2 | 12.9 | 0.00 | 0.00 | 0.00 | 29 | 1016.5 |
| 20260502012519 | 17 | 315 | 3.2 | 11.3 | 0.00 | 0.00 | 0.00 | 29 | 1016.5 |
| 20260502011538 | 17 | 293 | 3.2 | 6.4 | 0.00 | 0.00 | 0.00 | 28 | 1016.5 |
| 20260502010519 | 17 | 270 | 3.2 | 9.7 | 0.00 | 0.00 | 0.00 | 28 | 1016.6 |
| 20260502005539 | 18 | 270 | 4.8 | 12.9 | 0.00 | 0.00 | 0.00 | 27 | 1017.0 |
| 20260502004518 | 18 | 293 | 3.2 | 8.0 | 0.00 | 0.00 | 0.00 | 28 | 1017.2 |
| 20260502003518 | 18 | 270 | 4.8 | 11.3 | 0.00 | 0.00 | 0.00 | 28 | 1016.9 |
| 20260502002518 | 18 | 270 | 6.4 | 16.1 | 0.00 | 0.00 | 0.00 | 27 | 1016.9 |
| 20260502001519 | 18 | 270 | 4.8 | 14.5 | 0.00 | 0.00 | 0.00 | 26 | 1017.4 |
| 20260502000518 | 19 | 248 | 3.2 | 11.3 | 0.00 | 0.00 | 0.00 | 26 | 1017.4 |
| 20260501235539 | 18 | 270 | 4.8 | 12.9 | 0.00 | 0.00 | 0.00 | 25 | 1017.4 |
| 20260501234518 | 19 | 248 | 4.8 | 11.3 | 0.00 | 0.00 | 0.00 | 25 | 1017.5 |
| 20260501233518 | 19 | 293 | 4.8 | 11.3 | 0.00 | 0.00 | 0.00 | 25 | 1017.5 |
| 20260501232539 | 19 | 293 | 4.8 | 14.5 | 0.00 | 0.00 | 0.00 | 24 | 1017.4 |
| 20260501231517 | 19 | 270 | 3.2 | 9.7 | 0.00 | 0.00 | 0.00 | 24 | 1017.4 |
| 20260501230518 | 20 | 293 | 4.8 | 14.5 | 0.00 | 0.00 | 0.00 | 23 | 1018.3 |
| 20260501225538 | 20 | 293 | 1.6 | 6.4 | 0.00 | 0.00 | 0.00 | 25 | 1018.3 |
| 20260501224518 | 20 | 23 | 3.2 | 8.0 | 0.00 | 0.00 | 0.00 | 23 | 1018.4 |
| 20260501223518 | 18 | 293 | 6.4 | 12.9 | 0.00 | 0.00 | 0.00 | 25 | 1017.9 |
| 20260501222518 | 19 | 270 | 4.8 | 12.9 | 0.00 | 0.00 | 0.00 | 23 | 1018.4 |
| 20260501221518 | 20 | 68 | 3.2 | 9.7 | 0.00 | 0.00 | 0.00 | 23 | 1018.8 |
| 20260501220518 | 19 | 248 | 4.8 | 11.3 | 0.00 | 0.00 | 0.00 | 22 | 1018.6 |
| 20260501215518 | 18 | 248 | 4.8 | 12.9 | 0.00 | 0.00 | 0.00 | 23 | 1018.8 |
| 20260501214518 | 19 | 225 | 3.2 | 11.3 | 0.00 | 0.00 | 0.00 | 23 | 1019.2 |
| 20260501213518 | 20 | 248 | 3.2 | 4.8 | 0.00 | 0.00 | 0.00 | 22 | 1019.4 |
| 20260501212518 | 19 | 270 | 4.8 | 12.9 | 0.00 | 0.00 | 0.00 | 23 | 1019.3 |
| 20260501211518 | 18 | 225 | 6.4 | 16.1 | 0.00 | 0.00 | 0.00 | 22 | 1019.4 |
| 20260501210538 | 18 | 270 | 4.8 | 11.3 | 0.00 | 0.00 | 0.00 | 23 | 1019.4 |
| 20260501205518 | 18 | 225 | 6.4 | 12.9 | 0.00 | 0.00 | 0.00 | 22 | 1019.3 |
| 20260501204518 | 19 | 293 | 3.2 | 11.3 | 0.00 | 0.00 | 0.00 | 24 | 1019.6 |
| 20260501203517 | 18 | 248 | 6.4 | 12.9 | 0.00 | 0.00 | 0.00 | 21 | 1019.8 |
| 20260501202517 | 19 | 270 | 3.2 | 11.3 | 0.00 | 0.00 | 0.00 | 21 | 1020.1 |
| 20260501201520 | 18 | 248 | 3.2 | 11.3 | 0.00 | 0.00 | 0.00 | 23 | 1019.7 |
| 20260501200540 | 18 | 270 | 3.2 | 9.7 | 0.00 | 0.00 | 0.00 | 22 | 1019.8 |
| 20260501195518 | 18 | 248 | 3.2 | 4.8 | 0.00 | 0.00 | 0.00 | 20 | 1020.2 |
| 20260501194518 | 18 | 248 | 3.2 | 11.3 | 0.00 | 0.00 | 0.00 | 23 | 1020.2 |
| 20260501193540 | 18 | 270 | 4.8 | 14.5 | 0.00 | 0.00 | 0.00 | 21 | 1020.3 |
| 20260501192519 | 18 | 248 | 3.2 | 8.0 | 0.00 | 0.00 | 0.00 | 20 | 1020.3 |
| 20260501191517 | 17 | 270 | 4.8 | 11.3 | 0.00 | 0.00 | 0.00 | 23 | 1020.4 |
| 20260501190519 | 18 | 270 | 3.2 | 9.7 | 0.00 | 0.00 | 0.00 | 22 | 1020.9 |
| 20260501185517 | 17 | 270 | 1.6 | 4.8 | 0.00 | 0.00 | 0.00 | 23 | 1021.0 |
| 20260501184518 | 18 | 68 | 3.2 | 8.0 | 0.00 | 0.00 | 0.00 | 21 | 1021.0 |
| 20260501183519 | 18 | 68 | 3.2 | 6.4 | 0.00 | 0.00 | 0.00 | 21 | 1021.5 |
| 20260501182519 | 18 | 68 | 1.6 | 8.0 | 0.00 | 0.00 | 0.00 | 24 | 1021.7 |
| 20260501181520 | 17 | 90 | 6.4 | 14.5 | 0.00 | 0.00 | 0.00 | 24 | 1021.4 |
| 20260501180517 | 17 | 315 | 3.2 | 6.4 | 0.00 | 0.00 | 0.00 | 24 | 1021.4 |
| 20260501175540 | 16 | 315 | 3.2 | 8.0 | 0.00 | 0.00 | 0.00 | 25 | 1021.2 |
| 20260501174519 | 16 | 45 | 3.2 | 9.7 | 0.00 | 0.00 | 0.00 | 28 | 1021.1 |
| 20260501173519 | 15 | 248 | 4.8 | 8.0 | 0.00 | 0.00 | 0.00 | 27 | 1021.2 |
| 20260501172540 | 15 | 270 | 3.2 | 6.4 | 0.00 | 0.00 | 0.00 | 28 | 1021.1 |
| 20260501171519 | 15 | 270 | 1.6 | 9.7 | 0.00 | 0.00 | 0.00 | 30 | 1021.1 |
| 20260501170519 | 14 | 0.0 | 3.2 | 0.00 | 0.00 | 0.00 | 33 | 1021.2 | |
| 20260501165539 | 13 | 270 | 1.6 | 3.2 | 0.00 | 0.00 | 0.00 | 37 | 1020.9 |
| 20260501164519 | 13 | 270 | 1.6 | 4.8 | 0.00 | 0.00 | 0.00 | 37 | 1020.5 |
| 20260501163518 | 13 | 270 | 1.6 | 4.8 | 0.00 | 0.00 | 0.00 | 37 | 1020.5 |
| 20260501162519 | 12 | 293 | 1.6 | 4.8 | 0.00 | 0.00 | 0.00 | 39 | 1020.2 |
| 20260501161519 | 12 | 0.0 | 1.6 | 0.00 | 0.00 | 0.00 | 41 | 1019.8 | |
| 20260501160519 | 11 | 293 | 1.6 | 8.0 | 0.00 | 0.00 | 0.00 | 41 | 1019.8 |
| 20260501155519 | 11 | 293 | 1.6 | 4.8 | 0.00 | 0.00 | 0.00 | 42 | 1019.9 |
| 20260501154519 | 11 | 0.0 | 4.8 | 0.00 | 0.00 | 0.00 | 46 | 1019.5 | |
| 20260501153520 | 10 | 0.0 | 0.0 | 0.00 | 0.00 | 0.00 | 47 | 1019.5 | |
| 20260501152539 | 10 | 0.0 | 0.0 | 0.00 | 0.00 | 0.00 | 48 | 1019.4 | |
| 20260501151519 | 9 | 0.0 | 0.0 | 0.00 | 0.00 | 0.00 | 49 | 1019.5 | |
| 20260501150539 | 8 | 0.0 | 0.0 | 0.00 | 0.00 | 0.00 | 52 | 1019.2 |